Location: Austin
(30.3000°N, 97.7500°W)
Time: 04:48:06
(UTC-05:00)

Landsat 7 - Pass Details

Date: 18 March 2023
Orbit: 692 x 694 km, 97.9° (Epoch: 01 April)

Event Time Altitude Azimuth Distance (km) Brightness Sun altitude
Exits shadow 20:57:22 29° 121° (ESE) 1,264 4.6 -17.2°
Maximum altitude 20:59:09 41° 74° (ENE) 1,000 4.2 -17.6°
Drops below altitude 10° 21:03:34 10° 4° (N) 2,151 6.4 -18.5°
Sets 21:05:54 0° 358° (N) 3,070 7.3 -19.0°
